Killeen/Ft Hood, TX

2:44 AM CDT on July 24, 2017 (GMT -0500)
Hood Army Air Field

Weather History for KHLR - July, 2013

Change the Weather History Date:

Wednesday, July 24, 2013

  Actual Average Record
Temperature  
Mean Temperature 86 °F -  
Max Temperature 95 °F 94 °F 106 °F (2011)
Min Temperature 78 °F 74 °F 72 °F (2015)
Cooling Degree Days 22    
Growing Degree Days 36 (Base 50)    
Moisture  
Dew Point 72 °F    
Average Humidity 64    
Maximum Humidity 82    
Minimum Humidity 47    
Precipitation  
Precipitation 0.00 in - - ()
Sea Level Pressure  
Sea Level Pressure 29.97 in    
Wind  
Wind Speed 9 mph (SSE)    
Max Wind Speed 13 mph    
Max Gust Speed 20 mph    
Visibility 10 miles    
Events      
Averages and records for this station are not official NWS values.
T = Trace of Precipitation, MM = Missing Value Source: NWS Daily Summary

Daily Weather History Graph

Daily Weather History Graph

Search for Another Location

Airport or City:

Trip Planner

Search our weather history database for the weather conditions in past years. The results will help you decide how hot, cold, wet, or windy it might be!

Date:

Astronomy

Jul. 24, 2013 Rise Set
Actual Time 6:42 AM CDT 8:31 PM CDT
Civil Twilight 6:16 AM CDT 8:58 PM CDT
Nautical Twilight 5:43 AM CDT 9:30 PM CDT
Astronomical Twilight 5:09 AM CDT 10:04 PM CDT
Moon 9:53 PM CDT 8:51 AM CDT
Length of Visible Light 14h 42m
Length of Day
13h 48m
Waning Gibbous, 94% of the Moon is Illuminated
Jul 24
Waning Gibbous
Jul 29
Last Quarter
Aug 6
New
Aug 14
First Quarter
Aug 20
Full

Hourly Weather History & Observations

Time (CDT) Temp. Heat Index Dew Point Humidity Pressure Visibility Wind Dir Wind Speed Gust Speed Precip Events Conditions
12:56 AM 82.9 °F 86.5 °F 69.1 °F 63% 29.93 in 10.0 mi SE 11.5 mph - N/A   Clear
1:56 AM 82.0 °F 86.7 °F 72.0 °F 71% 29.98 in 10.0 mi SSE 8.1 mph 17.3 mph N/A   Clear
2:56 AM 81.0 °F 85.8 °F 73.0 °F 77% 29.99 in 10.0 mi South 8.1 mph - N/A   Clear
3:56 AM 80.1 °F 84.2 °F 73.0 °F 79% 30.00 in 10.0 mi South 9.2 mph 17.3 mph N/A   Clear
4:56 AM 79.0 °F - 73.0 °F 82% 29.99 in 10.0 mi South 11.5 mph 19.6 mph N/A   Clear
5:56 AM 79.0 °F - 73.0 °F 82% 30.02 in 10.0 mi South 6.9 mph - N/A   Clear
6:56 AM 78.1 °F - 72.0 °F 81% 29.97 in 10.0 mi SSE 5.8 mph - N/A   Clear
7:56 AM 79.0 °F - 73.0 °F 82% 29.96 in 10.0 mi SSE 10.4 mph - N/A   Clear
8:56 AM 82.0 °F 86.7 °F 72.0 °F 71% 29.98 in 10.0 mi South 12.7 mph - N/A   Clear
9:56 AM 84.9 °F 91.4 °F 73.0 °F 67% 29.99 in 10.0 mi South 10.4 mph - N/A   Clear
10:56 AM 88.0 °F 95.6 °F 73.0 °F 61% 30.02 in 10.0 mi SSW 8.1 mph - N/A   Clear
11:56 AM 90.0 °F 99.0 °F 73.9 °F 59% 30.02 in 10.0 mi Calm Calm - N/A   Scattered Clouds
12:56 PM 93.0 °F 103.2 °F 73.9 °F 54% 30.00 in 10.0 mi Variable 4.6 mph - N/A   Mostly Cloudy
1:56 PM 91.0 °F 100.4 °F 73.9 °F 57% 29.98 in 10.0 mi ESE 8.1 mph - N/A   Clear
2:56 PM 93.9 °F 104.0 °F 73.9 °F 52% 29.95 in 10.0 mi SE 9.2 mph - N/A   Clear
3:56 PM 93.9 °F 103.4 °F 73.0 °F 51% 29.93 in 10.0 mi ESE 5.8 mph - N/A   Clear
4:56 PM 95.0 °F 104.5 °F 73.0 °F 49% 29.91 in 10.0 mi Variable 5.8 mph - N/A   Clear
5:56 PM 95.0 °F 103.2 °F 72.0 °F 47% 29.96 in 10.0 mi ENE 8.1 mph - N/A   Clear
6:56 PM 93.0 °F 100.1 °F 71.1 °F 49% 29.92 in 10.0 mi East 8.1 mph - N/A   Clear
7:56 PM 91.9 °F 96.9 °F 69.1 °F 47% 29.92 in 10.0 mi East 4.6 mph - N/A   Clear